EFW61U LEAL-EGKK

Flight info

Callsign EFW61U
Flight time 1h 59m
Altitude 34000
Route MITOS N608 COMPI Y90 USKAR DCT MOPAS DCT GIROM DCT GONUP DCT MANAK DCT EPAPU UM184 EKRAS UT507 REVTU UP88 VASUX VASUX1G
Aircraft A321/M-SDE3FGIJ1KRWXY/SB1

Departure

Time 2026-05-05 13:50
Airport Alicante-Elche Miguel Hernández Airport (LEAL)

Arrival

Time 2026-05-05 15:50
Airport London Gatwick Airport (EGKK)
Time Latitude Longitude Altitude Speed Heading
2026-05-05 13:21 38.28591 -0.55719 103 ft 0 kts
2026-05-05 13:40 38.28579 -0.55720 103 ft 4 kts
2026-05-05 13:40 38.28552 -0.55720 103 ft 4 kts 355°
2026-05-05 13:40 38.28527 -0.55713 103 ft 4 kts 330°
2026-05-05 13:40 38.28514 -0.55695 103 ft 1 kts 280°
2026-05-05 13:41 38.28514 -0.55694 103 ft 0 kts 280°
2026-05-05 13:46 38.28517 -0.55722 102 ft 8 kts 280°
2026-05-05 13:46 38.28531 -0.55818 103 ft 14 kts 279°
2026-05-05 13:47 38.28549 -0.55954 104 ft 18 kts 276°
2026-05-05 13:47 38.28455 -0.56033 102 ft 17 kts 203°
2026-05-05 13:47 38.28445 -0.56184 104 ft 21 kts 279°
2026-05-05 13:47 38.28472 -0.56389 111 ft 25 kts 279°
2026-05-05 13:48 38.28505 -0.56627 123 ft 29 kts 281°
2026-05-05 13:48 38.28543 -0.56886 134 ft 31 kts 280°
2026-05-05 13:48 38.28584 -0.57165 146 ft 33 kts 280°
2026-05-05 13:48 38.28610 -0.57347 154 ft 11 kts 279°
2026-05-05 13:49 38.28557 -0.57428 155 ft 16 kts 193°
2026-05-05 13:49 38.28444 -0.57413 157 ft 19 kts 116°
2026-05-05 13:49 38.28404 -0.57146 149 ft 56 kts 100°
2026-05-05 13:49 38.28293 -0.56373 122 ft 120 kts 100°
2026-05-05 13:50 38.28113 -0.55101 87 ft 170 kts 102°
2026-05-05 13:50 38.27910 -0.53617 623 ft 168 kts 104°
2026-05-05 13:50 38.27661 -0.52158 1250 ft 172 kts 105°
2026-05-05 13:50 38.27420 -0.50588 1645 ft 188 kts 102°
2026-05-05 13:51 38.27581 -0.48896 1980 ft 205 kts 66°
2026-05-05 13:51 38.28394 -0.47340 2397 ft 217 kts 54°
2026-05-05 13:51 38.29312 -0.45722 2733 ft 235 kts 55°
2026-05-05 13:51 38.30279 -0.43959 3159 ft 250 kts 55°
2026-05-05 13:52 38.31290 -0.42090 3638 ft 263 kts 55°
2026-05-05 13:52 38.32256 -0.40061 4185 ft 272 kts 65°
2026-05-05 13:52 38.32998 -0.37825 4861 ft 276 kts 68°
2026-05-05 13:52 38.33713 -0.35546 5567 ft 279 kts 68°
2026-05-05 13:53 38.34436 -0.33244 6260 ft 281 kts 68°
2026-05-05 13:53 38.35159 -0.30950 6925 ft 284 kts 68°
2026-05-05 13:53 38.35903 -0.28598 7585 ft 287 kts 68°
2026-05-05 13:53 38.36666 -0.26232 8231 ft 291 kts 67°
2026-05-05 13:54 38.37464 -0.23848 8865 ft 294 kts 67°
2026-05-05 13:54 38.38271 -0.21442 9490 ft 297 kts 67°
2026-05-05 13:54 38.39087 -0.19003 10083 ft 302 kts 67°
2026-05-05 13:54 38.39928 -0.16485 10412 ft 316 kts 67°
2026-05-05 13:55 38.40809 -0.13842 10657 ft 333 kts 67°
2026-05-05 13:55 38.41733 -0.11056 10893 ft 349 kts 67°
2026-05-05 13:55 38.42702 -0.08135 11132 ft 365 kts 67°
2026-05-05 13:55 38.43843 -0.05177 11356 ft 379 kts 56°
2026-05-05 13:56 38.45646 -0.02705 11788 ft 383 kts 36°
2026-05-05 13:56 38.47975 -0.01091 12303 ft 382 kts 16°
2026-05-05 13:56 38.50573 -0.00497 12813 ft 379 kts 356°
2026-05-05 13:56 38.53195 -0.00729 13343 ft 379 kts 350°
2026-05-05 13:57 38.55838 -0.01022 13884 ft 383 kts 352°
2026-05-05 13:57 38.58519 -0.01182 14407 ft 388 kts 354°
2026-05-05 13:57 38.61234 -0.01241 14911 ft 393 kts 354°
2026-05-05 13:57 38.63984 -0.01252 15413 ft 397 kts 355°
2026-05-05 13:58 38.66749 -0.01249 15919 ft 400 kts 355°
2026-05-05 13:58 38.69549 -0.01237 16407 ft 404 kts 355°
2026-05-05 13:58 38.72370 -0.01217 16885 ft 407 kts 355°
2026-05-05 13:58 38.75211 -0.01195 17309 ft 411 kts 354°
2026-05-05 13:59 38.80978 -0.01156 18178 ft 418 kts 354°
2026-05-05 13:59 38.83894 -0.01137 18609 ft 421 kts 354°
2026-05-05 14:00 38.89790 -0.01098 19460 ft 427 kts 354°
2026-05-05 14:00 38.92731 -0.01078 19859 ft 429 kts 354°
2026-05-05 14:00 38.95727 -0.01059 20267 ft 432 kts 354°
2026-05-05 14:00 38.98745 -0.01038 20668 ft 434 kts 354°
2026-05-05 14:01 39.01778 -0.01018 21046 ft 437 kts 353°
2026-05-05 14:01 39.04826 -0.00997 21430 ft 440 kts 353°
2026-05-05 14:01 39.07894 -0.00976 21799 ft 442 kts 353°
2026-05-05 14:01 39.10981 -0.00956 22157 ft 445 kts 353°
2026-05-05 14:02 39.14086 -0.00937 22506 ft 447 kts 353°
2026-05-05 14:02 39.17206 -0.00915 22844 ft 450 kts 353°
2026-05-05 14:02 39.20348 -0.00893 23176 ft 452 kts 353°
2026-05-05 14:02 39.23502 -0.00872 23511 ft 455 kts 353°
2026-05-05 14:03 39.26677 -0.00851 23837 ft 457 kts 353°
2026-05-05 14:03 39.29864 -0.00831 24162 ft 459 kts 353°
2026-05-05 14:03 39.33068 -0.00806 24472 ft 462 kts 353°
2026-05-05 14:03 39.36302 -0.00374 24739 ft 476 kts
2026-05-05 14:04 39.39520 0.00769 24995 ft 483 kts 11°
2026-05-05 14:04 39.42766 0.02015 25153 ft 488 kts 11°
2026-05-05 14:04 39.46032 0.03264 25356 ft 492 kts 11°
2026-05-05 14:04 39.49327 0.04498 25620 ft 494 kts 10°
2026-05-05 14:05 39.52644 0.05725 25894 ft 496 kts 10°
2026-05-05 14:05 39.55968 0.06956 26147 ft 498 kts 10°
2026-05-05 14:05 39.59306 0.08195 26368 ft 501 kts 10°
2026-05-05 14:05 39.62664 0.09443 26601 ft 503 kts 10°
2026-05-05 14:06 39.65987 0.10678 26843 ft 505 kts
2026-05-05 14:06 39.69367 0.11932 27079 ft 506 kts
2026-05-05 14:06 39.72806 0.13212 27296 ft 509 kts
2026-05-05 14:06 39.76169 0.14461 27505 ft 510 kts
2026-05-05 14:07 39.79592 0.15735 27710 ft 513 kts
2026-05-05 14:07 39.83028 0.17018 27923 ft 515 kts
2026-05-05 14:07 39.86475 0.18310 28121 ft 517 kts
2026-05-05 14:07 39.89935 0.19607 28331 ft 518 kts
2026-05-05 14:08 39.93399 0.20908 28572 ft 518 kts
2026-05-05 14:08 39.96865 0.22207 28828 ft 519 kts
2026-05-05 14:08 40.00331 0.23513 29110 ft 518 kts
2026-05-05 14:08 40.03794 0.24815 29365 ft 518 kts
2026-05-05 14:09 40.07257 0.26114 29600 ft 518 kts
2026-05-05 14:09 40.10719 0.27412 29832 ft 518 kts
2026-05-05 14:09 40.14183 0.28719 30081 ft 518 kts
2026-05-05 14:09 40.17642 0.30020 30341 ft 517 kts
2026-05-05 14:10 40.21096 0.31318 30573 ft 517 kts
2026-05-05 14:10 40.24556 0.32613 30797 ft 517 kts
2026-05-05 14:10 40.28010 0.33917 31011 ft 517 kts
2026-05-05 14:10 40.31473 0.35230 31236 ft 517 kts
2026-05-05 14:11 40.34927 0.36529 31482 ft 516 kts
2026-05-05 14:11 40.38375 0.37827 31707 ft 515 kts
2026-05-05 14:11 40.41820 0.39131 31900 ft 515 kts
2026-05-05 14:11 40.45261 0.40437 32119 ft 515 kts
2026-05-05 14:12 40.48701 0.41746 32293 ft 515 kts
2026-05-05 14:12 40.52141 0.43057 32498 ft 515 kts
2026-05-05 14:12 40.55579 0.44377 32684 ft 515 kts
2026-05-05 14:12 40.59019 0.45695 32872 ft 514 kts
2026-05-05 14:13 40.62453 0.47006 33069 ft 514 kts
2026-05-05 14:13 40.65886 0.48319 33255 ft 514 kts
2026-05-05 14:13 40.69317 0.49636 33422 ft 514 kts
2026-05-05 14:13 40.72748 0.50952 33611 ft 514 kts
2026-05-05 14:14 40.76181 0.52271 33799 ft 513 kts
2026-05-05 14:14 40.79571 0.53574 33926 ft 513 kts
2026-05-05 14:14 40.86419 0.56218 33920 ft 512 kts
2026-05-05 14:15 40.93254 0.58854 33902 ft 512 kts
2026-05-05 14:15 41.00089 0.61499 33895 ft 513 kts
2026-05-05 14:16 41.06946 0.64171 33899 ft 513 kts
2026-05-05 14:16 41.13802 0.66829 33905 ft 513 kts 10°
2026-05-05 14:17 41.20654 0.69498 33901 ft 512 kts 10°
2026-05-05 14:17 41.27500 0.72169 33904 ft 513 kts 10°
2026-05-05 14:18 41.34353 0.74845 33903 ft 513 kts 10°
2026-05-05 14:18 41.41199 0.77528 33907 ft 513 kts 10°
2026-05-05 14:19 41.48050 0.80225 33911 ft 514 kts 10°
2026-05-05 14:19 41.54909 0.82919 33907 ft 514 kts 10°
2026-05-05 14:20 41.61752 0.85626 33913 ft 513 kts 10°
2026-05-05 14:20 41.68561 0.88318 33911 ft 513 kts 10°
2026-05-05 14:21 41.75418 0.91032 33910 ft 514 kts 10°
2026-05-05 14:21 41.82260 0.93747 33912 ft 512 kts 10°
2026-05-05 14:22 41.89103 0.96471 33908 ft 513 kts 10°
2026-05-05 14:22 41.95938 0.99197 33908 ft 512 kts 10°
2026-05-05 14:23 42.02777 1.01935 33909 ft 513 kts 10°
2026-05-05 14:23 42.09607 1.04676 33915 ft 512 kts 11°
2026-05-05 14:24 42.16496 1.06327 33910 ft 494 kts 352°
2026-05-05 14:24 42.23292 1.05710 33913 ft 487 kts 346°
2026-05-05 14:25 42.29999 1.04871 33914 ft 488 kts 347°
2026-05-05 14:25 42.36773 1.04129 33909 ft 488 kts 347°
2026-05-05 14:26 42.43546 1.03403 33909 ft 489 kts 347°
2026-05-05 14:26 42.50332 1.02670 33909 ft 490 kts 347°
2026-05-05 14:27 42.57115 1.01932 33912 ft 488 kts 348°
2026-05-05 14:27 42.63886 1.01187 33917 ft 488 kts 348°
2026-05-05 14:28 42.70662 1.00448 33925 ft 489 kts 348°
2026-05-05 14:28 42.77421 0.99627 33921 ft 482 kts 343°
2026-05-05 14:29 42.83871 0.97556 33911 ft 475 kts 338°
2026-05-05 14:29 42.90291 0.95298 33952 ft 477 kts 338°
2026-05-05 14:30 42.96718 0.93083 33950 ft 477 kts 338°
2026-05-05 14:30 43.03161 0.90865 33949 ft 477 kts 338°
2026-05-05 14:31 43.09598 0.88637 33953 ft 478 kts 338°
2026-05-05 14:31 43.16001 0.86406 33950 ft 478 kts 338°
2026-05-05 14:32 43.22442 0.84156 33953 ft 477 kts 338°
2026-05-05 14:32 43.28872 0.81903 33948 ft 477 kts 338°
2026-05-05 14:33 43.35313 0.79652 33951 ft 478 kts 339°
2026-05-05 14:33 43.41755 0.77395 33958 ft 477 kts 339°
2026-05-05 14:34 43.47035 0.75311 33945 ft 470 kts 332°
2026-05-05 14:34 43.53054 0.71807 33951 ft 469 kts 329°
2026-05-05 14:35 43.59046 0.68248 33965 ft 469 kts 330°
2026-05-05 14:35 43.65045 0.64707 33956 ft 469 kts 330°
2026-05-05 14:36 43.71056 0.61147 33963 ft 469 kts 330°
2026-05-05 14:36 43.77053 0.57593 33957 ft 469 kts 330°
2026-05-05 14:37 43.83055 0.54024 33959 ft 469 kts 331°
2026-05-05 14:37 43.89050 0.50450 33956 ft 469 kts 331°
2026-05-05 14:38 43.95051 0.46872 33958 ft 469 kts 331°
2026-05-05 14:38 44.01012 0.43309 33957 ft 470 kts 331°
2026-05-05 14:39 44.07018 0.39730 33956 ft 470 kts 332°
2026-05-05 14:39 44.13020 0.36136 33959 ft 468 kts 332°
2026-05-05 14:40 44.19006 0.32535 33957 ft 469 kts 332°
2026-05-05 14:40 44.24989 0.28925 33955 ft 468 kts 332°
2026-05-05 14:41 44.30970 0.25310 33962 ft 469 kts 332°
2026-05-05 14:41 44.36949 0.21685 33957 ft 468 kts 332°
2026-05-05 14:42 44.42928 0.18053 33958 ft 469 kts 332°
2026-05-05 14:42 44.48907 0.14415 33955 ft 469 kts 332°
2026-05-05 14:43 44.54889 0.10766 33955 ft 469 kts 332°
2026-05-05 14:43 44.60868 0.07111 33955 ft 469 kts 332°
2026-05-05 14:44 44.66843 0.03452 33946 ft 469 kts 332°
2026-05-05 14:44 44.72785 -0.00198 33949 ft 468 kts 332°
2026-05-05 14:45 44.78748 -0.03884 33955 ft 468 kts 334°
2026-05-05 14:45 44.84676 -0.07548 33945 ft 464 kts 334°
2026-05-05 14:46 44.89994 -0.10831 33934 ft 465 kts 334°
2026-05-05 14:46 44.95918 -0.14503 33945 ft 465 kts 334°
2026-05-05 14:47 45.01847 -0.18183 33946 ft 465 kts 334°
2026-05-05 14:47 45.07765 -0.21863 33937 ft 465 kts 334°
2026-05-05 14:48 45.13686 -0.25557 33935 ft 465 kts 334°
2026-05-05 14:48 45.19605 -0.29262 33931 ft 465 kts 334°
2026-05-05 14:49 45.25529 -0.32976 33931 ft 465 kts 334°
2026-05-05 14:49 45.31447 -0.36688 33925 ft 465 kts 334°
2026-05-05 14:50 45.37372 -0.40418 33921 ft 466 kts 334°
2026-05-05 14:50 45.43294 -0.44156 33921 ft 465 kts 334°
2026-05-05 14:51 45.49208 -0.47892 33912 ft 465 kts 334°
2026-05-05 14:51 45.55084 -0.51619 33909 ft 466 kts 334°
2026-05-05 14:52 45.61006 -0.55380 33908 ft 466 kts 334°
2026-05-05 14:52 45.66922 -0.59147 33910 ft 465 kts 334°
2026-05-05 14:53 45.72830 -0.62920 33910 ft 465 kts 334°
2026-05-05 14:53 45.78748 -0.66704 33914 ft 466 kts 334°
2026-05-05 14:54 45.84661 -0.70500 33911 ft 465 kts 334°
2026-05-05 14:54 45.90568 -0.74303 33901 ft 465 kts 334°
2026-05-05 14:55 45.96470 -0.78120 33900 ft 466 kts 334°
2026-05-05 14:55 46.02383 -0.81947 33901 ft 465 kts 334°
2026-05-05 14:56 46.08250 -0.85736 33903 ft 466 kts 335°
2026-05-05 14:56 46.14163 -0.89569 33899 ft 466 kts 335°
2026-05-05 14:57 46.20084 -0.93402 33894 ft 467 kts 338°
2026-05-05 14:57 46.26343 -0.95835 33899 ft 466 kts 348°
2026-05-05 14:58 46.32694 -0.97744 33902 ft 466 kts 348°
2026-05-05 14:58 46.39045 -0.99684 33900 ft 466 kts 348°
2026-05-05 14:59 46.45387 -1.01629 33892 ft 466 kts 348°
2026-05-05 14:59 46.51728 -1.03568 33894 ft 466 kts 348°
2026-05-05 15:00 46.57000 -1.05182 33884 ft 466 kts 348°
2026-05-05 15:00 46.64423 -1.07479 33880 ft 466 kts 348°
2026-05-05 15:01 46.70767 -1.09445 33879 ft 466 kts 348°
2026-05-05 15:01 46.77107 -1.11415 33881 ft 465 kts 348°
2026-05-05 15:02 46.83440 -1.13396 33879 ft 466 kts 348°
2026-05-05 15:02 46.89774 -1.15378 33879 ft 466 kts 349°
2026-05-05 15:03 46.96067 -1.17350 33880 ft 465 kts 348°
2026-05-05 15:03 47.02395 -1.19340 33880 ft 465 kts 349°
2026-05-05 15:04 47.08725 -1.21339 33881 ft 466 kts 349°
2026-05-05 15:04 47.15060 -1.23335 33881 ft 465 kts 349°
2026-05-05 15:05 47.24554 -1.26338 33881 ft 465 kts 349°
2026-05-05 15:06 47.30883 -1.28352 33880 ft 465 kts 349°
2026-05-05 15:06 47.37210 -1.30367 33881 ft 465 kts 349°
2026-05-05 15:07 47.43529 -1.32389 33880 ft 465 kts 349°
2026-05-05 15:07 47.49861 -1.34414 33881 ft 465 kts 349°
2026-05-05 15:08 47.56184 -1.36443 33880 ft 465 kts 349°
2026-05-05 15:08 47.62509 -1.38484 33882 ft 465 kts 349°
2026-05-05 15:09 47.68834 -1.40524 33889 ft 465 kts 349°
2026-05-05 15:09 47.75228 -1.41577 33890 ft 462 kts 359°
2026-05-05 15:10 47.81652 -1.42051 33888 ft 463 kts 359°
2026-05-05 15:10 47.88075 -1.42526 33889 ft 462 kts 359°
2026-05-05 15:11 47.94458 -1.43009 33898 ft 462 kts 359°
2026-05-05 15:11 48.00856 -1.43488 33899 ft 456 kts 359°
2026-05-05 15:12 48.07190 -1.43951 33902 ft 455 kts 359°
2026-05-05 15:12 48.13521 -1.44401 33900 ft 456 kts 359°
2026-05-05 15:13 48.19848 -1.44859 33899 ft 455 kts 359°
2026-05-05 15:13 48.26176 -1.45315 33901 ft 455 kts 359°
2026-05-05 15:14 48.32496 -1.45766 33913 ft 454 kts 359°
2026-05-05 15:14 48.38818 -1.46224 33911 ft 455 kts 359°
2026-05-05 15:15 48.45133 -1.46690 33910 ft 454 kts 359°
2026-05-05 15:15 48.51451 -1.47150 33910 ft 454 kts 359°
2026-05-05 15:16 48.57768 -1.47619 33919 ft 454 kts 359°
2026-05-05 15:16 48.64081 -1.48075 33921 ft 454 kts 359°
2026-05-05 15:17 48.70389 -1.48531 33929 ft 454 kts 359°
2026-05-05 15:17 48.76700 -1.48986 33929 ft 454 kts 359°
2026-05-05 15:18 48.83009 -1.49441 33931 ft 453 kts 359°
2026-05-05 15:18 48.89304 -1.49950 33929 ft 453 kts 355°
2026-05-05 15:19 48.95464 -1.51700 33930 ft 453 kts 349°
2026-05-05 15:19 49.01625 -1.53715 33931 ft 453 kts 349°
2026-05-05 15:20 49.07787 -1.55704 33931 ft 453 kts 349°
2026-05-05 15:20 49.13945 -1.57689 33930 ft 452 kts 349°
2026-05-05 15:21 49.20095 -1.59655 33932 ft 451 kts 348°
2026-05-05 15:21 49.26237 -1.61639 33934 ft 451 kts 348°
2026-05-05 15:22 49.32365 -1.63629 33939 ft 450 kts 348°
2026-05-05 15:22 49.38492 -1.65643 33938 ft 450 kts 348°
2026-05-05 15:23 49.44609 -1.67625 33942 ft 449 kts 348°
2026-05-05 15:23 49.50720 -1.69608 33937 ft 449 kts 348°
2026-05-05 15:24 49.55799 -1.71236 33937 ft 449 kts 351°
2026-05-05 15:24 49.62001 -1.71136 33942 ft 447 kts 12°
2026-05-05 15:25 49.67890 -1.68143 33938 ft 446 kts 20°
2026-05-05 15:25 49.73704 -1.64849 33863 ft 444 kts 20°
2026-05-05 15:25 49.76614 -1.63229 33551 ft 445 kts 20°
2026-05-05 15:26 49.79536 -1.61606 33278 ft 447 kts 20°
2026-05-05 15:26 49.82465 -1.59978 32808 ft 447 kts 20°
2026-05-05 15:26 49.85394 -1.58354 32189 ft 447 kts 20°
2026-05-05 15:26 49.88324 -1.56727 31567 ft 448 kts 20°
2026-05-05 15:27 49.91251 -1.55092 31000 ft 447 kts 20°
2026-05-05 15:27 49.94177 -1.53459 30446 ft 446 kts 20°
2026-05-05 15:27 49.97090 -1.51833 29913 ft 444 kts 21°
2026-05-05 15:27 49.99994 -1.50232 29387 ft 442 kts 19°
2026-05-05 15:28 50.02922 -1.48779 28867 ft 440 kts 18°
2026-05-05 15:28 50.05834 -1.47364 28370 ft 437 kts 18°
2026-05-05 15:28 50.08727 -1.45959 27883 ft 434 kts 18°
2026-05-05 15:28 50.11602 -1.44560 27394 ft 431 kts 18°
2026-05-05 15:29 50.14451 -1.43165 26893 ft 428 kts 18°
2026-05-05 15:29 50.17243 -1.41797 26397 ft 425 kts 18°
2026-05-05 15:29 50.20050 -1.40423 25897 ft 421 kts 18°
2026-05-05 15:29 50.22837 -1.39056 25423 ft 418 kts 18°
2026-05-05 15:30 50.25596 -1.37703 24960 ft 415 kts 18°
2026-05-05 15:30 50.28344 -1.36360 24471 ft 412 kts 18°
2026-05-05 15:30 50.31066 -1.35021 23981 ft 409 kts 18°
2026-05-05 15:30 50.33768 -1.33686 23505 ft 405 kts 18°
2026-05-05 15:31 50.36444 -1.32353 23039 ft 402 kts 18°
2026-05-05 15:31 50.39101 -1.31035 22571 ft 399 kts 18°
2026-05-05 15:31 50.41734 -1.29731 22100 ft 396 kts 18°
2026-05-05 15:31 50.44347 -1.28431 21632 ft 393 kts 18°
2026-05-05 15:32 50.46941 -1.27144 21155 ft 390 kts 18°
2026-05-05 15:32 50.49483 -1.25723 20695 ft 386 kts 24°
2026-05-05 15:32 50.51793 -1.23641 20264 ft 381 kts 37°
2026-05-05 15:32 50.53829 -1.21014 19843 ft 377 kts 41°
2026-05-05 15:33 50.55811 -1.18330 19392 ft 375 kts 41°
2026-05-05 15:33 50.57782 -1.15676 18949 ft 372 kts 40°
2026-05-05 15:33 50.59720 -1.13085 18524 ft 369 kts 40°
2026-05-05 15:33 50.61677 -1.10488 18101 ft 366 kts 40°
2026-05-05 15:34 50.63624 -1.07924 17682 ft 364 kts 40°
2026-05-05 15:34 50.65541 -1.05342 17247 ft 361 kts 43°
2026-05-05 15:34 50.67231 -1.02431 16816 ft 359 kts 50°
2026-05-05 15:34 50.68803 -0.99394 16393 ft 357 kts 51°
2026-05-05 15:35 50.70359 -0.96361 15959 ft 355 kts 51°
2026-05-05 15:35 50.71911 -0.93343 15534 ft 353 kts 51°
2026-05-05 15:35 50.73449 -0.90352 15124 ft 350 kts 51°
2026-05-05 15:35 50.74980 -0.87380 14706 ft 348 kts 51°
2026-05-05 15:36 50.76505 -0.84426 14279 ft 346 kts 51°
2026-05-05 15:36 50.78020 -0.81491 13849 ft 344 kts 51°
2026-05-05 15:36 50.79529 -0.78568 13418 ft 342 kts 51°
2026-05-05 15:36 50.80946 -0.75571 13017 ft 338 kts 60°
2026-05-05 15:37 50.81743 -0.72184 12691 ft 331 kts 78°
2026-05-05 15:37 50.82095 -0.68650 12498 ft 320 kts 81°
2026-05-05 15:37 50.82413 -0.65230 12345 ft 309 kts 81°
2026-05-05 15:37 50.82750 -0.61930 12169 ft 299 kts 80°
2026-05-05 15:38 50.82861 -0.60887 12106 ft 296 kts 79°
2026-05-05 15:38 50.83157 -0.58182 11937 ft 294 kts 79°
2026-05-05 15:38 50.83512 -0.55004 11743 ft 293 kts 79°
2026-05-05 15:39 50.83866 -0.51879 11540 ft 292 kts 79°
2026-05-05 15:39 50.84227 -0.48722 11332 ft 291 kts 79°
2026-05-05 15:39 50.84587 -0.45575 11102 ft 290 kts 79°
2026-05-05 15:39 50.84945 -0.42442 10780 ft 288 kts 79°
2026-05-05 15:40 50.85305 -0.39288 10386 ft 287 kts 78°
2026-05-05 15:40 50.85655 -0.36222 10014 ft 286 kts 79°
2026-05-05 15:40 50.86005 -0.33126 9647 ft 285 kts 79°
2026-05-05 15:40 50.86355 -0.30040 9308 ft 285 kts 79°
2026-05-05 15:41 50.86704 -0.26967 8958 ft 282 kts 79°
2026-05-05 15:41 50.87379 -0.24090 8553 ft 279 kts 56°
2026-05-05 15:41 50.88734 -0.21951 8158 ft 276 kts 31°
2026-05-05 15:41 50.90423 -0.20953 7795 ft 274 kts
2026-05-05 15:42 50.92298 -0.21145 7431 ft 273 kts 346°
2026-05-05 15:42 50.94101 -0.22073 7085 ft 272 kts 337°
2026-05-05 15:42 50.95624 -0.23821 6721 ft 273 kts 312°
2026-05-05 15:42 50.96577 -0.26415 6376 ft 273 kts 294°
2026-05-05 15:43 50.97244 -0.29227 6012 ft 271 kts 291°
2026-05-05 15:43 50.97867 -0.32052 5672 ft 271 kts 291°
2026-05-05 15:43 50.98482 -0.34875 5347 ft 270 kts 291°
2026-05-05 15:43 50.99088 -0.37675 5013 ft 267 kts 291°
2026-05-05 15:44 50.99782 -0.40391 4657 ft 264 kts 305°
2026-05-05 15:44 51.01045 -0.42396 4452 ft 254 kts 329°
2026-05-05 15:44 51.02565 -0.43708 4319 ft 244 kts 335°
2026-05-05 15:44 51.04062 -0.44874 4208 ft 235 kts 336°
2026-05-05 15:45 51.05509 -0.45995 4104 ft 227 kts 336°
2026-05-05 15:45 51.06906 -0.47082 3979 ft 219 kts 336°
2026-05-05 15:45 51.08202 -0.47853 3734 ft 205 kts 355°
2026-05-05 15:45 51.09499 -0.47344 3641 ft 191 kts 31°
2026-05-05 15:46 51.10461 -0.45956 3433 ft 185 kts 49°
2026-05-05 15:46 51.11121 -0.44200 3194 ft 186 kts 63°
2026-05-05 15:46 51.11558 -0.42258 2944 ft 188 kts 71°
2026-05-05 15:46 51.11880 -0.40239 2681 ft 187 kts 75°
2026-05-05 15:47 51.12158 -0.38262 2432 ft 180 kts 76°
2026-05-05 15:47 51.12333 -0.36990 2265 ft 176 kts 75°
2026-05-05 15:47 51.12681 -0.34478 1930 ft 169 kts 76°
2026-05-05 15:47 51.12924 -0.32713 1704 ft 158 kts 76°
2026-05-05 15:48 51.13158 -0.31018 1507 ft 156 kts 77°
2026-05-05 15:48 51.13391 -0.29328 1350 ft 156 kts 77°
2026-05-05 15:48 51.13624 -0.27643 1131 ft 156 kts 77°
2026-05-05 15:48 51.13831 -0.26143 932 ft 156 kts 77°
2026-05-05 15:49 51.14063 -0.24459 722 ft 156 kts 77°
2026-05-05 15:49 51.14295 -0.22773 507 ft 156 kts 77°
2026-05-05 15:49 51.14532 -0.21089 309 ft 156 kts 76°
2026-05-05 15:49 51.14764 -0.19427 214 ft 144 kts 77°
2026-05-05 15:50 51.14937 -0.18166 213 ft 66 kts 78°
2026-05-05 15:50 51.15006 -0.17635 216 ft 36 kts 78°
2026-05-05 15:50 51.15071 -0.17326 213 ft 26 kts 59°
2026-05-05 15:50 51.15132 -0.17219 212 ft 8 kts 14°
2026-05-05 15:51 51.15185 -0.17250 211 ft 11 kts 323°
2026-05-05 15:51 51.15199 -0.17266 211 ft 0 kts 323°
2026-05-05 15:51 51.15204 -0.17272 211 ft 4 kts 329°
2026-05-05 15:51 51.15242 -0.17241 210 ft 10 kts 63°
2026-05-05 15:52 51.15263 -0.17110 210 ft 15 kts 77°
2026-05-05 15:52 51.15290 -0.16929 210 ft 19 kts 77°
2026-05-05 15:52 51.15318 -0.16735 210 ft 18 kts 65°
2026-05-05 15:52 51.15355 -0.16618 210 ft 7 kts 77°
2026-05-05 15:53 51.15369 -0.16520 210 ft 11 kts 49°
2026-05-05 15:53 51.15423 -0.16511 210 ft 8 kts 347°
2026-05-05 15:53 51.15475 -0.16509 210 ft 7 kts 51°
2026-05-05 15:53 51.15485 -0.16466 210 ft 1 kts 76°
2026-05-05 15:54 51.15488 -0.16443 210 ft 0 kts 75°